Weather in Yuryatino

Russia / Kaluga Oblast     54°50′48″N   37°12′14″E
temp.,
°C
wind,
m/s
gust,
m/s
humid.,
%
clouds,
%
prec.,
mm/h
press.,
hPa
HPBL,
m
23 june, wed
wed2300:00+21sse22825 0.0 102011
03:00+19s11865 0.0 102111
06:00+22e11800 0.0 102122
09:00+26ese22655 0.0 1021345
12:00+29se33565 0.0 1021994
15:00+30se33530 0.0 10211204
18:00+29se22630 0.0 1020926
21:00+23sse12770 0.0 102111
24 june, thu
thu2400:00+21s11840 0.0 102111
03:00+20nne00840 0.0 102111
06:00+22w00803 0.0 102131
09:00+26se11655 0.0 1021368
12:00+29sse33565 0.0 1021951
15:00+30s225312 0.0 10201341
18:00+30ssw2264100 0.0 1019695
21:00+24sw22777 0.0 101815
25 june, fri
fri2500:00+22ssw11818 0.0 101811
03:00+20sw11875 0.1 101811
06:00+22ssw11854 0.0 101863
09:00+27ssw22703 0.0 1018436
12:00+30s325713 0.0 10171261
15:00+30sse22525 0.0 10171458
18:00+28s476621 0.1 1013521
21:00+19nne2289100 2.7 101627
26 june, sat
sat2600:00+19sw118538 0.0 101611
03:00+18nne119251 0.1 101511
06:00+20ese00887 0.0 101550
09:00+25nw1175100 0.0 1015440
12:00+28s226194 0.1 1014920
15:00+29sse3362100 0.1 10141087
18:00+28sse247169 0.1 1013304
21:00+23s228092 0.4 101316
27 june, sun
sun2700:00+18n2393100 1.1 101456
03:00+17wsw2285100 1.1 101414
06:00+19se118218 0.1 101446
09:00+23sw2274100 0.1 1014390
12:00+26w2366100 0.0 1014573
15:00+26w1163100 0.0 1014493
18:00+26e116630 0.0 1013372
21:00+22wsw1182100 0.1 101411